Theta_e
321 325 325 322 322 322 322 323 324 322 320 321 323 324 331 335 341 341 342 343 340 339 334 336 334 333 333 332 327 323 321 321 323 327 326 325 322 320 317 319 316 317 319 320
324 324 321 319 321 323 323 324 323 322 319 321 320 325 332 334 336 338 340 341 338 337 334 332 332 332 331 331 329 324 322 322 325 325 322 319 319 319 317 315 315 314 314 316
325 322 319 322 323 324 323 323 323 323 320 317 319 322 329 332 332 333 335 339 337 336 333 331 330 330 331 331 331 330 329 328 327 324 323 322 322 320 320 320 319 318 315 313
324 322 322 323 323 322 324 321 321 321 321 323 317 321 324 325 333 333 334 335 334 333 332 331 330 330 330 330 329 328 328 327 326 325 321 321 320 319 317 314 313 312 310 311
325 323 323 324 322 321 324 319 319 318 320 320 321 321 320 325 328 332 333 334 333 332 331 330 326 322 323 319 316 317 319 321 320 315 312 313 313 312 311 311 311 311 311 311
324 321 322 323 320 318 317 319 317 319 319 322 320 323 323 328 329 329 331 332 332 330 326 317 316 316 316 314 314 313 312 311 310 310 310 310 311 311 310 310 310 310 309 309
325 324 323 322 325 321 323 324 323 320 321 321 319 325 327 325 323 329 330 331 329 321 317 316 316 315 316 315 314 313 312 313 311 311 310 310 310 310 309 309 308 308 308 308
328 328 325 322 324 324 319 322 322 321 321 321 320 326 326 323 320 320 323 325 319 317 315 315 314 313 313 313 313 312 312 312 311 310 310 309 309 308 307 307 307 307 307 307
328 327 323 319 319 320 321 322 318 324 321 323 322 323 324 323 321 321 321 319 317 314 314 313 313 313 312 312 312 312 311 311 310 310 309 308 307 307 307 307 307 306 306 306
326 330 324 324 319 317 319 318 324 324 325 323 322 322 322 325 324 321 321 318 315 314 313 313 313 312 312 312 311 311 311 310 309 309 308 307 306 306 306 306 306 306 306 306
325 329 326 325 324 324 321 321 319 322 324 324 323 322 321 323 323 323 320 316 315 314 314 314 313 311 311 311 311 311 310 309 308 308 307 306 306 306 306 305 304 304 304 305
324 328 327 324 321 319 321 320 321 325 325 322 323 324 319 319 318 319 318 315 314 314 314 313 312 312 312 312 311 310 309 308 308 307 306 306 306 306 306 304 305 305 304 304
325 327 329 320 321 322 323 319 319 321 320 326 328 326 319 317 317 316 316 315 315 315 315 314 312 312 312 311 310 309 308 308 307 306 305 305 305 306 305 305 306 305 305 305
327 326 325 323 320 322 324 322 321 323 329 323 322 322 322 321 319 318 317 316 315 315 315 314 313 312 311 310 309 308 307 307 307 306 305 305 306 306 306 306 305 305 305 305
325 328 324 323 321 321 322 323 323 324 324 326 323 324 323 322 320 318 317 316 316 316 315 313 313 312 310 310 308 307 307 306 306 305 304 305 305 304 305 306 305 305 306 306
321 329 324 326 323 324 325 324 324 324 323 322 322 323 319 317 316 317 317 317 317 316 313 313 312 311 310 308 307 306 306 305 305 304 304 304 304 305 305 305 305 306 306 307
326 328 328 327 323 324 326 323 323 323 321 321 323 321 318 319 318 319 319 318 317 314 313 313 312 310 309 307 306 306 305 305 304 304 303 303 304 305 305 305 305 306 307 307
326 328 326 327 324 327 320 319 320 323 324 320 320 319 319 320 318 318 318 317 316 313 313 312 311 309 308 307 306 305 305 304 304 304 304 304 305 305 304 305 306 307 308 307
323 327 329 328 325 324 324 322 322 324 326 323 321 320 319 318 318 320 317 315 313 313 312 311 309 308 306 306 305 305 305 305 304 304 304 304 305 304 304 305 306 307 308 307
320 323 326 323 327 328 327 321 320 321 330 324 321 322 321 319 324 320 316 313 312 312 311 310 308 306 306 306 304 305 305 304 304 304 303 305 304 304 305 305 306 307 308 307
325 324 327 325 326 325 323 321 319 330 334 323 322 323 322 322 322 318 314 313 312 312 310 308 307 306 306 304 304 305 303 304 304 303 304 305 304 304 305 306 307 308 308 307
329 330 327 324 326 326 321 319 328 332 324 322 323 323 322 321 317 316 314 313 312 311 310 308 307 306 305 304 304 304 303 304 304 303 303 305 305 305 306 306 307 308 308 307
327 326 329 329 328 326 321 327 325 321 324 323 323 322 320 321 318 316 314 313 312 311 309 307 306 305 305 304 304 303 304 304 304 303 303 305 305 305 306 306 307 308 307 307
323 321 325 324 327 323 322 322 321 320 321 321 321 321 319 320 317 315 313 313 312 310 308 306 306 305 305 304 304 302 302 303 303 303 303 304 305 305 306 306 307 308 307 305
322 322 326 326 324 321 321 322 324 324 320 320 319 319 319 318 316 314 313 312 311 309 307 306 305 305 305 304 302 302 302 303 303 303 304 304 304 305 305 306 308 308 306 304
320 325 326 326 327 326 326 324 322 323 323 322 320 317 316 315 316 312 312 311 310 309 307 306 305 304 303 302 302 301 302 302 302 303 304 304 304 305 305 306 308 308 307 305
Wind_Speed
4 4 5 4 5 7 7 4 1 2 3 3 4 9 11 14 13 12 10 10 8 8 9 10 11 10 10 9 9 9 10 12 14 12 11 12 12 12 14 11 16 17 13 13
3 6 3 6 6 6 3 2 3 2 3 4 4 5 5 12 12 10 11 11 11 11 11 15 14 12 10 9 11 13 14 16 14 12 12 11 14 15 18 19 20 18 17 18
4 5 4 1 3 3 2 2 1 4 5 1 4 2 3 7 8 9 11 13 12 13 13 14 15 13 12 13 14 15 17 17 17 18 16 15 15 16 16 18 21 23 26 21
6 2 1 2 3 1 1 1 4 5 4 7 4 3 2 2 12 13 14 15 15 14 15 16 14 13 12 14 14 16 18 20 18 19 16 14 13 15 15 16 17 22 25 24
2 6 2 1 2 1 2 3 2 1 2 3 3 4 3 1 8 14 14 16 15 15 13 12 12 13 11 7 8 11 13 12 12 11 11 11 13 15 17 19 21 25 25 24
2 1 0 1 2 3 2 2 3 2 1 2 3 3 2 2 4 7 13 15 15 13 7 2 3 4 5 5 5 6 6 7 9 12 15 17 18 20 23 25 27 27 27 27
1 1 2 1 3 3 4 4 3 1 0 2 2 3 3 4 6 7 12 14 10 4 2 1 4 6 4 4 4 5 7 8 13 16 19 20 19 20 23 25 26 26 27 26
3 3 1 2 2 2 4 2 2 4 3 6 1 2 1 2 1 2 6 6 5 3 0 1 2 3 4 5 7 7 9 14 18 18 17 17 20 23 23 22 23 23 24 23
4 3 1 5 2 3 2 1 2 3 1 3 2 2 6 5 4 3 5 6 5 3 3 2 3 5 7 8 9 10 13 17 19 19 18 22 23 23 22 21 21 21 21 21
4 2 1 2 2 9 1 6 1 1 3 4 2 3 3 7 9 5 6 6 4 4 4 3 5 8 9 9 10 12 16 20 20 19 23 23 24 24 22 21 22 22 23 21
3 0 1 2 2 1 2 2 4 1 2 3 5 3 2 4 6 9 8 6 4 5 5 5 7 7 7 10 13 17 21 24 22 23 25 25 25 24 22 21 22 21 23 21
2 2 2 2 1 4 2 1 1 2 2 1 2 7 2 3 4 3 7 4 2 4 4 6 6 7 10 12 17 22 23 24 23 24 25 25 24 22 21 22 22 24 23 26
6 2 1 2 2 2 1 2 4 4 0 6 5 6 2 2 4 4 3 2 4 4 6 5 8 10 13 16 20 22 24 23 23 24 24 24 22 21 21 21 22 27 28 27
5 3 3 2 2 1 4 3 3 3 3 8 11 17 13 7 9 6 4 3 4 5 7 7 9 14 17 20 22 23 23 21 22 23 22 22 21 22 23 25 29 31 31 29
1 3 3 3 4 4 7 9 7 8 9 6 13 13 17 12 8 6 4 4 6 8 8 9 10 15 19 21 22 22 23 22 22 23 22 21 23 25 24 27 31 31 31 29
1 2 2 3 1 3 7 11 10 10 6 10 12 14 4 1 3 5 5 7 8 8 9 10 11 17 20 20 21 23 23 23 21 21 22 22 24 24 26 29 31 30 29 27
4 5 3 3 2 6 7 6 4 3 4 4 5 4 2 5 7 7 8 7 9 8 9 9 12 16 18 19 20 21 22 23 22 23 23 23 25 25 28 30 29 28 26 23
6 5 0 3 3 4 2 2 5 7 9 8 10 8 6 6 4 6 7 8 6 6 8 9 13 16 18 18 20 20 21 22 22 24 24 25 24 27 30 29 28 26 22 21
0 5 3 3 3 5 4 4 4 3 6 8 9 5 5 3 4 9 7 7 5 5 7 10 12 15 16 18 18 19 22 21 22 23 25 26 27 29 29 28 28 26 23 20
5 3 4 3 3 4 1 3 3 4 4 3 8 7 8 5 4 4 1 5 5 5 6 9 13 15 15 18 17 18 20 19 20 25 28 27 27 29 28 29 28 26 23 18
3 2 8 6 6 6 8 6 5 3 3 3 7 7 9 7 5 2 4 4 4 3 6 8 11 13 15 16 16 17 17 18 22 25 26 26 27 29 29 28 28 25 20 14
9 8 4 3 5 8 9 7 7 4 2 3 6 9 10 9 4 5 5 3 5 5 7 9 12 14 15 14 15 17 17 21 23 26 27 25 28 28 28 28 27 24 19 16
5 6 4 9 5 0 9 4 7 1 4 3 5 8 10 8 8 6 5 5 5 5 7 9 11 14 15 13 14 17 19 21 23 25 26 25 28 27 30 27 25 20 17 15
4 3 4 3 7 12 9 8 9 8 11 7 8 7 10 9 7 6 5 5 4 4 6 9 11 14 15 15 16 16 18 20 21 23 25 25 25 30 29 27 23 18 16 16
1 8 6 4 9 6 9 10 11 9 10 10 8 9 11 9 7 6 5 5 4 4 5 8 11 13 15 16 17 17 18 19 21 23 24 23 25 25 26 26 23 20 19 22
4 4 5 7 8 6 6 6 6 9 10 13 11 9 10 11 8 8 5 5 4 4 5 8 10 12 14 16 16 17 17 18 20 21 22 24 25 24 24 22 22 18 21 21
Wind_Direction
26 95 80 66 87 112 120 111 101 182 176 277 235 271 216 185 189 185 181 182 180 196 203 236 244 254 265 271 271 273 278 284 291 302 308 306 302 299 306 309 318 314 314 306
96 96 91 102 86 100 105 98 36 279 353 319 351 17 150 192 200 201 191 194 203 212 227 239 244 254 264 280 281 277 276 281 294 301 298 302 303 302 305 311 314 318 322 317
112 115 148 90 73 59 50 39 297 303 345 67 321 150 175 196 203 202 207 213 218 226 236 248 259 264 277 280 281 285 287 291 293 297 302 305 306 305 305 309 310 310 318 320
84 132 177 58 76 347 290 259 283 287 294 315 349 300 194 214 219 221 215 215 224 228 239 254 264 273 274 277 282 292 292 291 298 300 304 304 307 306 309 315 310 313 309 311
107 170 161 58 26 255 11 6 6 359 155 212 30 274 103 226 227 225 219 219 224 233 244 264 294 288 277 294 312 310 314 315 305 312 332 339 329 318 313 310 311 311 309 308
78 308 357 89 106 52 334 250 65 88 161 193 20 316 137 275 291 226 213 218 222 233 250 304 322 324 317 319 322 329 335 329 335 338 332 330 326 324 318 314 311 306 304 303
44 9 329 202 228 163 14 352 328 221 349 340 17 256 340 296 254 235 208 210 216 205 177 302 315 311 329 327 330 327 327 325 331 330 326 325 323 319 311 307 305 303 300 297
198 212 342 7 14 348 48 355 311 311 310 319 215 234 55 221 342 287 249 204 148 145 29 290 302 322 316 315 311 310 322 325 326 324 320 317 313 309 304 301 301 299 297 299
174 234 15 41 59 328 130 259 65 114 119 263 297 235 248 210 202 167 140 142 140 152 158 266 263 280 296 294 295 310 320 320 319 317 317 316 314 309 303 299 298 297 293 293
166 217 72 97 133 56 282 129 228 106 288 294 240 271 287 218 223 193 179 175 173 174 214 259 289 285 279 286 302 309 317 321 319 316 315 314 312 309 304 299 295 295 295 296
126 122 125 239 23 293 154 190 66 64 305 283 301 304 184 262 283 248 207 187 192 206 225 285 302 305 287 296 309 318 323 321 315 315 315 312 309 307 301 295 295 294 297 293
44 109 253 352 347 289 342 19 178 223 203 188 303 285 167 279 304 235 183 189 203 226 279 298 308 310 302 309 317 321 321 317 315 315 312 308 306 305 300 299 300 302 297 297
176 52 309 186 169 135 171 121 106 95 82 214 265 268 159 228 222 199 204 237 245 258 294 308 306 309 312 316 320 320 320 317 315 316 315 314 310 309 303 301 301 299 300 302
96 129 197 249 295 285 258 199 206 234 242 284 254 289 289 278 238 214 230 257 285 288 304 306 308 314 315 320 324 323 321 317 318 320 318 315 316 316 311 308 303 305 303 297
101 188 206 261 245 234 266 268 251 236 256 251 292 285 290 306 245 231 263 261 286 292 299 311 310 313 320 326 325 323 321 321 324 324 319 315 316 315 310 307 307 308 303 295
54 155 188 264 320 241 276 279 261 253 258 256 277 282 314 291 210 226 257 269 281 290 301 307 311 319 324 325 323 323 326 326 325 324 321 319 315 313 311 310 311 308 303 302
153 151 174 277 329 310 270 236 213 239 215 247 271 324 231 225 234 251 268 272 272 285 300 306 317 321 319 320 323 323 325 327 327 325 318 317 317 313 311 314 310 309 307 309
140 124 135 293 307 246 61 204 280 259 278 233 262 258 239 251 256 269 268 271 268 282 294 308 318 317 318 320 323 323 327 330 325 321 321 322 321 315 314 314 311 314 316 318
182 140 136 259 244 314 232 193 185 185 286 229 243 247 219 221 298 278 255 233 261 274 295 307 314 313 315 321 324 324 325 326 323 322 323 322 319 313 315 314 311 314 315 323
87 76 218 167 232 260 244 167 156 162 279 221 214 229 202 174 267 329 234 200 227 249 297 309 317 317 317 326 325 321 324 327 326 328 322 320 318 316 316 318 315 315 315 326
158 162 220 209 239 270 247 157 158 225 257 203 207 219 186 208 241 106 166 193 215 267 295 313 316 318 323 326 324 321 325 328 327 326 324 322 321 323 326 325 327 324 328 333
188 172 191 174 223 262 157 131 197 217 202 235 211 217 212 228 211 214 208 209 223 265 300 319 319 325 328 329 327 323 326 328 328 327 325 325 326 327 331 335 331 332 340 326
206 207 192 195 216 125 204 230 220 184 269 229 230 221 216 220 220 205 213 210 231 266 303 317 321 324 329 331 330 324 326 330 330 331 328 330 328 332 344 337 334 340 347 344
219 164 212 160 233 242 233 242 244 234 236 236 238 229 199 211 198 199 209 207 230 265 303 317 323 326 330 334 332 331 329 332 334 333 332 330 329 335 344 344 345 351 357 356
327 163 190 238 269 266 255 236 248 249 239 242 233 215 213 202 185 194 204 209 223 265 298 314 325 327 333 337 337 337 338 338 337 335 336 333 333 337 342 348 352 7 16 1
197 204 207 248 239 221 230 211 229 231 234 238 223 210 207 200 184 183 187 195 202 255 302 317 326 332 337 337 339 341 341 340 337 336 338 335 332 338 346 348 355 35 15 24